Lakeland Region, FL

1:22 AM EDT on March 23, 2017 (GMT -0400)
Lakeland Linder Regional

Weather History for KLAL - February, 2013

Change the Weather History Date:

Sunday, February 17, 2013

  Actual Average Record
Temperature  
Mean Temperature 45 °F -  
Max Temperature 55 °F 72 °F 88 °F (1992)
Min Temperature 35 °F 53 °F 32 °F (2007)
Degree Days  
Heating Degree Days 20    
Moisture  
Dew Point 20 °F    
Average Humidity 43    
Maximum Humidity 70    
Minimum Humidity 14    
Precipitation  
Precipitation 0.00 in - - ()
Sea Level Pressure  
Sea Level Pressure 30.27 in    
Wind  
Wind Speed 10 mph (NNW)    
Max Wind Speed 17 mph    
Max Gust Speed 24 mph    
Visibility 13 miles    
Events      
Averages and records for this station are not official NWS values.
T = Trace of Precipitation, MM = Missing Value Source: NWS Daily Summary

Daily Weather History Graph

Daily Weather History Graph

Search for Another Location

Airport or City:

Trip Planner

Search our weather history database for the weather conditions in past years. The results will help you decide how hot, cold, wet, or windy it might be!

Date:

Astronomy

Feb. 17, 2013 Rise Set
Actual Time 7:03 AM EST 6:20 PM EST
Civil Twilight 6:39 AM EST 6:44 PM EST
Nautical Twilight 6:12 AM EST 7:12 PM EST
Astronomical Twilight 5:45 AM EST 7:39 PM EST
Moon 11:35 AM EST (2/17) 12:36 AM EST (2/17)
Length of Visible Light 12h 04m
Length of Day
11h 16m
Waxing Crescent, 49% of the Moon is Illuminated
Feb 17
Waxing Crescent
Feb 17
First Quarter
Feb 25
Full
Mar 4
Last Quarter
Mar 11
New

Hourly Weather History & Observations

Time (EST) Temp. Windchill Dew Point Humidity Pressure Visibility Wind Dir Wind Speed Gust Speed Precip Events Conditions
12:15 AM 46.4 °F 40.1 °F 23.0 °F 40% 30.16 in 10.0 mi NNW 15.0 mph 23.0 mph N/A   Scattered Clouds
12:35 AM 46.4 °F 39.8 °F 23.0 °F 40% 30.17 in 10.0 mi NNW 16.1 mph 23.0 mph N/A   Clear
12:55 AM 46.4 °F 39.5 °F 21.2 °F 37% 30.17 in 10.0 mi North 17.3 mph 24.2 mph N/A   Clear
1:15 AM 44.6 °F 37.4 °F 23.0 °F 43% 30.18 in 10.0 mi North 16.1 mph 20.7 mph N/A   Clear
1:35 AM 44.6 °F 38.4 °F 21.2 °F 39% 30.18 in 10.0 mi North 12.7 mph - N/A   Clear
1:55 AM 42.8 °F 37.5 °F 19.4 °F 39% 30.19 in 10.0 mi North 9.2 mph 17.3 mph N/A   Clear
2:15 AM 42.8 °F 36.6 °F 19.4 °F 39% 30.19 in 10.0 mi North 11.5 mph 17.3 mph N/A   Clear
2:35 AM 42.8 °F 37.5 °F 17.6 °F 36% 30.19 in 10.0 mi North 9.2 mph - N/A   Clear
2:55 AM 41.0 °F 35.2 °F 17.6 °F 39% 30.20 in 10.0 mi North 9.2 mph - N/A   Clear
3:15 AM 41.0 °F 35.2 °F 19.4 °F 42% 30.19 in 10.0 mi North 9.2 mph - N/A   Clear
3:35 AM 39.2 °F 35.0 °F 19.4 °F 45% 30.20 in 10.0 mi North 5.8 mph - N/A   Clear
3:55 AM 37.4 °F 32.8 °F 21.2 °F 52% 30.21 in 10.0 mi NNW 5.8 mph - N/A   Clear
4:15 AM 37.4 °F 32.1 °F 21.2 °F 52% 30.21 in 10.0 mi North 6.9 mph - N/A   Clear
4:35 AM 35.6 °F 29.9 °F 21.2 °F 56% 30.21 in 10.0 mi North 6.9 mph - N/A   Clear
4:55 AM 35.6 °F 30.7 °F 21.2 °F 56% 30.22 in 10.0 mi North 5.8 mph - N/A   Clear
5:15 AM 35.6 °F 30.7 °F 21.2 °F 56% 30.23 in 10.0 mi North 5.8 mph - N/A   Clear
5:35 AM 35.6 °F 29.9 °F 21.2 °F 56% 30.24 in 10.0 mi North 6.9 mph - N/A   Clear
5:50 AM 35.6 °F 30.7 °F 19.4 °F 52% 30.25 in 10.0 mi North 5.8 mph - N/A   Clear
6:55 AM 35.6 °F 29.9 °F 19.4 °F 52% 30.27 in 15.0 mi North 6.9 mph - N/A   Clear
7:56 AM 37.4 °F 32.1 °F 19.4 °F 48% 30.29 in 20.0 mi North 6.9 mph - N/A   Clear
8:56 AM 42.8 °F 35.4 °F 15.8 °F 34% 30.32 in 20.0 mi North 15.0 mph 19.6 mph N/A   Clear
9:51 AM 44.6 °F 38.1 °F 15.8 °F 31% 30.33 in 20.0 mi North 13.8 mph 18.4 mph N/A   Clear
10:55 AM 46.4 °F 40.7 °F 15.8 °F 29% 30.34 in 20.0 mi North 12.7 mph 18.4 mph N/A   Clear
11:50 AM 50.0 °F - 14.0 °F 24% 30.34 in 20.0 mi NNW 9.2 mph 18.4 mph N/A   Clear
12:50 PM 51.8 °F - 14.0 °F 22% 30.32 in 20.0 mi NNW 13.8 mph 20.7 mph N/A   Clear
1:50 PM 53.6 °F - 10.4 °F 18% 30.30 in 20.0 mi NW 9.2 mph - N/A   Clear
2:50 PM 55.4 °F - 8.6 °F 15% 30.28 in 20.0 mi NNW 9.2 mph - N/A   Clear
3:50 PM 55.4 °F - 6.8 °F 14% 30.27 in 20.0 mi NNW 6.9 mph - N/A   Clear
4:50 PM 55.4 °F - 8.6 °F 15% 30.28 in 20.0 mi North 6.9 mph - N/A   Clear
5:50 PM 53.6 °F - 10.4 °F 18% 30.28 in 20.0 mi NW 4.6 mph - N/A   Clear
6:50 PM 48.2 °F - 15.8 °F 27% 30.30 in 12.0 mi North 3.5 mph - N/A   Clear
7:50 PM 46.4 °F 45.2 °F 21.2 °F 37% 30.31 in 10.0 mi NNE 3.5 mph - N/A   Clear
8:50 PM 41.0 °F 39.0 °F 26.6 °F 57% 30.33 in 20.0 mi WNW 3.5 mph - N/A   Clear
9:50 PM 39.2 °F 35.0 °F 26.6 °F 61% 30.35 in 20.0 mi NNW 5.8 mph - N/A   Clear
9:55 PM 39.2 °F 35.9 °F 26.6 °F 61% 30.35 in 10.0 mi North 4.6 mph - N/A   Clear
10:15 PM 39.2 °F 37.0 °F 26.6 °F 61% 30.35 in 10.0 mi North 3.5 mph - N/A   Clear
10:35 PM 39.2 °F - 26.6 °F 61% 30.36 in 10.0 mi Calm Calm - N/A   Clear
10:55 PM 39.2 °F - 28.4 °F 65% 30.36 in 10.0 mi Calm Calm - N/A   Clear
11:15 PM 37.4 °F - 28.4 °F 70% 30.36 in 10.0 mi Calm Calm - N/A   Clear
11:35 PM 37.4 °F - 26.6 °F 65% 30.36 in 10.0 mi Calm Calm - N/A   Clear
11:55 PM 37.4 °F - 28.4 °F 70% 30.36 in 10.0 mi Calm Calm - N/A   Clear